sat.trackr.live / text

‹ back to catalog

STARLINK-32224

NORAD 60941 · 2024-155T

PAYLOAD ACTIVE UNKNOWN

§ Identity

Operator
Country
US
Launch date
2024-08-31
Launch site
AFWTR
Launch vehicle
Mass (kg)
RCS (m²)

Purposes: comms

External: N2YO · Heavens-Above · Gunter

§ Orbital elements

Epoch: 2026-05-25T03:08:24.245088Z

Period
94.11 min
Inclination
53.1593°
Eccentricity
0.0001139
Mean motion
15.30195681 rev/d
Perigee alt
474.4 km
Apogee alt
476.0 km
Semi-major
6,853.4 km
B*
1.0557e-5
RAAN
134.6544°
Arg perigee
67.8658°
Mean anomaly
292.2463°
Rev number
9,805

§ Raw data

STARLINK-322241 60941U 24155T   26145.13083617 -.00000046  00000+0  10557-4 0  99962 60941  53.1593 134.6544 0001139  67.8658 292.2463 15.30195681 98058

JSON: /api/v1/satellites/60941 · /tle

For live sub-satellite position, see the globe view (requires WebGL).

§ Visibility from observer

Set your observer location to see the next 7 days of passes ≥ 10°. The values pass through the URL so the page stays shareable.

No JS? Fill the form by hand. The geolocation button needs JavaScript.